EYESAT-NANO (44877 NORAD) Tracking and Keplerian Element Data

This shows tracking and keplerian element data for the satellite.

Feedback or suggestion? Click here.




ElementValue
Catalog44877
NameEYESAT-NANO
Epoch Orbit1516
Epoch Day87.46835062
Epoch Year2020
RAAN272.1681
Inclination97.4506
Eccentricity0.0012553
Argument of Perigee308.9838
Mean Anonmoly51.0337
Mean Motion15.16672283
Decay Rate-6.7E-07
L11 44877U 19092E 20087.46835062 -.00000067 00000-0 00000-0 0 9996
L22 44877 97.4506 272.1681 0012553 308.9838 51.0337 15.16672283 15168

Live tracking and technical data element details for EYESAT-NANO (NORAD 44877). EYESAT-NANO can be tracked NOW for your location showing map with azimuth and elevation plus other details from your city location.

Track the satellite on the map from your city or location and see movement details for azimuth, elevation, latitude, longitude, range, height, and movement on the map or in text.







IsCatalogInMostPopularTable: catalog: 44877, numindb: 40
Update: records affected: 1



GetName: 44877 EYESAT-NANO

Hit Count: updated at: Sat, 28 Mar 2020 21:21:02 GMT